This demonstration page uses our WeatherBlox Daily Observations layout. Learn more.

Left ArrowRight Arrow

34.16533, -84.80231

Hourly Observations for July 9, 2017

Temp ( °F °C ) Dew Point ( °F °C ) Humidity (%) Winds ( mph kmh ) Pressure ( in mb ) Visibility ( mi km ) Precip ( " mm )
12:53 am 00:53 Clear 68 20 68 20 100 100 Calm 30.01 1016 9 14 0.00 0.00
1:53 am 01:53 Clear 68 20 68 20 100 100 Calm 30.01 1016 7 11 0.00 0.00
2:09 am 02:09 Mostly Clear 67 19.4 67 19.4 100 100 Calm 30.03 1017 8 13 0.00 0.00
2:25 am 02:25 Mostly Cloudy with Mist and Fog 67 19.4 67 19.4 100 100 Calm 30.03 1017 2 3 0.00 0.00
2:32 am 02:32 Mostly Cloudy with Mist and Fog 67 19.4 67 19.4 100 100 Calm 30.03 1017 2 2 0.00 0.00
2:36 am 02:36 Mostly Cloudy with Mist and Fog 68 20 68 20 100 100 Calm 30.03 1017 3 5 0.00 0.00
2:48 am 02:48 Partly Cloudy with Mist and Fog 68 20 68 20 100 100 Calm 30.03 1017 6 10 0.00 0.00
2:53 am 02:53 Mostly Clear 67 19.4 67 19.4 100 100 Calm 30.01 1016 7 11 0.00 0.00
3:53 am 03:53 Clear 67 19.4 67 19.4 100 100 Calm 30.01 1016 7 11 0.00 0.00
4:29 am 04:29 Partly Cloudy with Mist and Fog 67 19.4 67 19.4 100 100 Calm 30.03 1017 4 6 0.00 0.00
4:37 am 04:37 Mostly Cloudy with Mist and Fog 67 19.4 67 19.4 100 100 Calm 30.03 1017 5 8 0.00 0.00
4:53 am 04:53 Cloudy with Mist and Fog 67 19.4 67 19.4 100 100 Calm 30.02 1017 6 10 0.00 0.00
5:31 am 05:31 Mostly Cloudy with Mist and Fog 66 18.9 66 18.9 100 100 Calm 30.03 1017 2 3 0.00 0.00
5:53 am 05:53 Mostly Cloudy with Mist and Fog 66 18.9 66 18.9 100 100 Calm 30.03 1017 1 2 0.00 0.00
6:53 am 06:53 Mostly Cloudy with Mist and Fog 66 18.9 66 18.9 100 100 WSW 3 6 30.04 1017 1 1 0.00 0.00
7:30 am 07:30 Mostly Cloudy with Fog 66 18.9 66 18.9 100 100 Calm 30.06 1018 0 0 0.00 0.00
7:53 am 07:53 Mostly Cloudy with Fog 67 19.4 67 19.4 100 100 Calm 30.06 1018 0 0 0.00 0.00
8:03 am 08:03 Mostly Cloudy with Mist and Fog 67 19.4 67 19.4 100 100 Calm 30.06 1018 1 1 0.00 0.00
8:15 am 08:15 Mostly Cloudy with Mist and Fog 68 20 68 20 100 100 Calm 30.06 1018 1 2 0.00 0.00
8:23 am 08:23 Cloudy with Mist and Fog 68 20 68 20 100 100 Calm 30.06 1018 1 1 0.00 0.00
8:43 am 08:43 Mostly Cloudy with Mist and Fog 69 20.6 69 20.6 100 100 Calm 30.06 1018 2 3 0.00 0.00
8:51 am 08:51 Partly Cloudy 70 21 70 21 100 100 Calm 30.06 1018 8 13 0.00 0.00
8:53 am 08:53 Partly Cloudy 69 20.6 69 20.6 100 100 Calm 30.07 1018 9 14 0.00 0.00
9:53 am 09:53 Sunny 76 24.4 72 22.2 88 88 Calm 30.08 1019 10 16 0.00 0.00
10:53 am 10:53 Sunny 81 27.2 72 22.2 74 74 NNE 3 6 30.08 1019 10 16 0.00 0.00
11:53 am 11:53 Sunny 82 27.8 70 21.1 67 67 Calm 30.08 1019 10 16 0.00 0.00
12:53 pm 12:53 Sunny 85 29.4 69 20.6 59 59 VRB 3 6 30.06 1018 10 16 0.00 0.00
1:53 pm 13:53 Partly Cloudy 86 30 65 18.3 49 49 VRB 5 7 30.05 1018 10 16 0.00 0.00
2:53 pm 14:53 Partly Cloudy 84 28.9 67 19.4 57 57 NNW 7 11 30.04 1017 10 16 0.00 0.00
3:53 pm 15:53 Sunny 87 30.6 67 19.4 51 51 undefined N/A 30.03 1017 10 16 0.00 0.00
4:53 pm 16:53 Sunny 87 30.6 67 19.4 51 51 VRB 5 7 30.01 1016 10 16 0.00 0.00
5:53 pm 17:53 Sunny 87 30.6 66 18.9 50 50 VRB 5 7 30.00 1016 10 16 0.00 0.00
6:53 pm 18:53 Sunny 85 29.4 65 18.3 51 51 Calm 30.00 1016 10 16 0.00 0.00
7:53 pm 19:53 Sunny 80 26.7 67 19.4 64 64 Calm 30.00 1016 10 16 0.00 0.00
8:53 pm 20:53 Sunny 72 22.2 71 21.7 97 97 Calm 30.01 1016 10 16 0.00 0.00
9:53 pm 21:53 Clear 69 20.6 69 20.6 100 100 Calm 30.03 1017 10 16 0.00 0.00
10:53 pm 22:53 Clear 68 20 68 20 100 100 Calm 30.05 1018 10 16 0.00 0.00
11:53 pm 23:53 Clear 67 19.4 67 19.4 100 100 Calm 30.04 1017 10 16 0.00 0.00

Powered by AerisWeather